Other Public Products
Issued by NWS Grand Forks, ND

Home | Current Version | Previous Version | Graphics & Text | Print | Product List | Glossary On
Versions: 1 2 3 4 5 6 7 8 9 10 11 12 13 14 15 16 17 18 19 20 21 22 23 24 25 26 27 28 29 30 31 32 33 34 35 36 37 38 39 40 41 42 43 44 45 46 47 48 49 50
000
FPUS83 KFGF 192331
OPUFGF
PRAIRIE TO PINES WEATHER ROUNDUP
NATIONAL WEATHER SERVICE EASTERN NORTH DAKOTA/GRAND FORKS ND
600 PM CDT FRI SEP 19 2014

 **SATELLITE DATA USED TO AUGMENT SKY COVER AT AUTOMATED STATIONS**
 *****  WEATHER ACROSS EASTERN NORTH DAKOTA  *****

CITY           SKY/WX    TMP DP  RH WIND       PRES   REMARKS
GRAND FORKS    MOSUNNY   83  53  35 W15G24    29.50R
GRAND FORKS AF SUNNY     81  54  38 W14G22    29.51R
GRAND CITY NWS   N/A     77 N/A N/A W12         N/A
BUXTON           N/A     82  58  44 SW5         N/A
DEVILS LAKE    SUNNY     79  54  41 NW18      29.56R
FARGO          SUNNY     79  66  64 SW12      29.55S
WAHPETON ARPT  PTCLDY    77  61  57 SW8       29.60R
$$

 *****  WEATHER ACROSS CENTRAL AND WESTERN NORTH DAKOTA  *****

CITY           SKY/WX    TMP DP  RH WIND       PRES   REMARKS
JAMESTOWN      MOSUNNY   77  52  41 W13       29.61R
BISMARCK       PTSUNNY   79  50  36 W17       29.67R
MINOT          LGT RAIN  71  53  52 NW23G37   29.66R
MINOT AFB      MOSUNNY   81  50  34 NW28      29.54F
GARRISON         N/A     77  53  43 NW21G37   29.67R
WILLISTON      MOSUNNY   74  50  42 NW13      29.75R
DICKINSON      CLOUDY    75  47  36 W20G28    29.75R
HETTINGER      PTSUNNY   73  47  39 W18G26    29.81R
$$

 *****  OTHER OBSERVATIONS NORTHEAST NORTH DAKOTA  *****

CITY           SKY/WX    TMP DP  RH WIND       PRES   REMARKS
WALHALLA         N/A     68  66  94 N20       29.54R
LANGDON        FAIR      75  55  50 NW18G25   29.55R
CAVALIER       FAIR      68  63  83 N22G33    29.51R
GRAFTON        FAIR      77  55  47 W20G25    29.47S
CANDO          FAIR      73  57  56 N20G25    29.58R
FORT TOTTEN      N/A     79  48  33 NW7       29.95S
ROLLA          FAIR      68  55  64 N15G24    29.62R
RUGBY          FAIR      73  57  56 NW21G29   29.61R
 ***** THE ABOVE OBSERVATIONS ARE NON NWS ARE NOT QUALITY
        CONTROLLED AND MAY MIS-REPORT RAIN FOR SNOW...
$$

 *****  OTHER OBSERVATIONS SOUTHEAST NORTH DAKOTA *****

CITY           SKY/WX    TMP DP  RH WIND       PRES   REMARKS
COOPERSTOWN    NOT AVBL
VALLEY CITY    FAIR      79  54  41 W13       29.59S
OAKES            N/A     79  57  47 W8        29.63R
GWINNER        CLEAR     81  66  61 W6        29.63R
SHEYENNE NWR     N/A     82  67  60 SW9       29.95S
BUFFALO          N/A     80  46  29 W10         N/A
WYNDMERE         N/A     81  66  61 SW8         N/A
 ***** THE ABOVE OBSERVATIONS ARE NON NWS ARE NOT QUALITY
       CONTROLLED AND MAY MIS-REPORT RAIN FOR SNOW...
$$

  *****  WEATHER ACROSS NORTHERN MINNESOTA  *****

CITY           SKY/WX    TMP DP  RH WIND       PRES   REMARKS
FLAG ISLAND    PTSUNNY   61  59  94 SE5       29.51F FOG
WARROAD        PTSUNNY   70  64  83 CALM      29.52F
ROSEAU         MOSUNNY   73  64  73 SW6       29.51F
HALLOCK        SUNNY     79  61  53 S9        29.45F
THF RVR FALLS  SUNNY     73  64  73 S10G16    29.53S
HALSTAD          N/A     76  64  67 SW9         N/A
FOSSTON        SUNNY     72  63  73 S12       29.58R
BAUDETTE       MOSUNNY   68  63  84 SW9       29.54R
WASKISH        CLOUDY    68  64  88 CALM      29.57S
CROOKSTON      SUNNY     77  66  69 S13       29.52F
$$
  *****  WEATHER ACROSS CENTRAL AND WEST MINNESOTA  *****

CITY           SKY/WX    TMP DP  RH WIND       PRES   REMARKS
BEMIDJI        CLOUDY    66  62  85 S6        29.60S
PARK RAPIDS    CLOUDY    67  62  84 SW9       29.62S
WADENA         PTSUNNY   68  63  83 SW8       29.63R
DETROIT LAKES  SUNNY     72  64  78 S7        29.62R
MOORHEAD       SUNNY     79  68  69 SW7       29.58R
FERGUS FALLS   SUNNY     73  63  68 SW9       29.61S
ELBOW LAKE     FAIR      72  65  81 SW9       29.63S
MORRIS MN      MOSUNNY   75  66  73 SW5       29.64S
STAPLES        CLOUDY    64  63  94 S8        29.63S
WHEATON        MOSUNNY   73  64  73 SW5       29.64S
$$
  *****  WEATHER ELSEWHERE ACROSS MINNESOTA  *****

CITY           SKY/WX    TMP DP  RH WIND       PRES   REMARKS
DULUTH         CLOUDY    64  59  83 SW17G23   29.64F HAZE
INTRNTL FALLS  CLOUDY    64  62  93 SW6       29.57R
ELY            CLOUDY    59  57  94 SW10G16   29.63R
CLOQUET        CLOUDY    63  61  94 SW8G18    29.64F FOG
BRAINERD       CLOUDY    62  61  96 S9        29.64F FOG
HIBBING        CLOUDY    62  59  90 SW6       29.63S FOG
ALEXANDRIA     MOSUNNY   69  65  86 SW9       29.67R
SAINT CLOUD    LGT RAIN  69  64  84 S3        29.66F
MINNEAPOLIS    PTSUNNY   75  63  66 N5        29.67S
$$

  *****  WEATHER ACROSS SOUTH DAKOTA  *****

CITY           SKY/WX    TMP DP  RH WIND       PRES   REMARKS
SIOUX FALLS    MOSUNNY   87  65  47 W6        29.70R
BROOKINGS      NOT AVBL
WATERTOWN      PTSUNNY   78  65  63 SW8       29.69R
HURON          PTSUNNY   87  57  35 W7        29.67R
SISSETON         N/A     78  65  63 W7        29.62R
ABERDEEN       MOSUNNY   84  58  40 W10       29.65R
MITCHELL       MOSUNNY   84  62  47 W6        29.70R
PIERRE         SUNNY     85  54  34 NW14      29.71R
MOBRIDGE       SUNNY     83  53  35 W12       29.68R
RAPID CITY     MOSUNNY   80  49  33 N10       29.85R
$$

  *****  SOME WEATHER IN NEARBY STATES *****

CITY           SKY/WX    TMP DP  RH WIND       PRES   REMARKS
GLASGOW MT     MOSUNNY   73  52  47 NW9       29.77S
GREAT FALLS MT SUNNY     73  41  31 W26G33    29.93R
CHEYENNE WY    PTSUNNY   82  40  22 NW16G25   30.01S
SCOTTSBLUFF NE SUNNY     90  48  23 VRB3      29.86F
OMAHA NE       MOSUNNY   85  68  56 S20G29    29.78F
DES MOINES IA  PTSUNNY   78  66  66 S20G25    29.85F
DAVENPORT IA   MOSUNNY   73  52  47 S12       29.96F
CHICAGO IL     MOCLDY    77  44  30 S16       30.00F
EAU CLAIRE WI  CLOUDY    74  58  57 S15       29.73S
LA CROSSE WI   SUNNY     75  57  53 S22G30    29.75S
$$

  *****  SOME NATIONAL WEATHER *****

CITY           SKY/WX    TMP DP  RH WIND       PRES   REMARKS
LA GUARDIA NY  MOCLDY    63  47  55 SE12      30.34R
RALEIGH NC     PTCLDY    72  61  68 NE6       30.20S
ATLANTA GA     PTCLDY    79  62  56 E14       30.07R
NEW ORLEANS LA PTSUNNY   83  68  60 E15       29.92S
OKLAHOMA CITY  MOSUNNY   85  63  47 S14       29.94S
ALBUQUERQUE NM MOSUNNY   81  53  37 VRB3      30.02S
SALT LAKE CITY MOSUNNY   82  53  36 NW8       30.01S
LOS ANGELES CA MOSUNNY   73  60  63 W13G20    29.85S
BOISE ID       SUNNY     79  46  31 NW9       30.01F
SEATTLE WA     MOSUNNY   74  56  53 VRB6      30.09F
$$

*** WEATHER ACROSS MANITOBA...SASKATCHEWAN AND ONTARIO ***
                ***ONTARIO***

CITY           SKY/WX    TMP DP  RH WIND       PRES   REMARKS
GERALDTON      LGT RAIN N/A N/A N/A SW12        N/A
THUNDER BAY    CLOUDY    59  57  94 W6        29.59
SIOUX LOOKOUT  LGT RAIN  59  59 100 SW7       29.52R
TORONTO        MOCLDY    54  45  71 E9        30.18F
BIG TROUT LK   CLOUDY    52  50  93 NW6       29.47R
PICKLE LAKE    DRIZZLE   59  57  94 W8        29.46R FOG
DRYDEN         LGT RAIN  61  59  94 SW13G18   29.52  FOG
KENORA         LGT RAIN  61  61 100 SW8       29.53R FOG
$$
                *** MANITOBA***

CITY           SKY/WX    TMP DP  RH WIND       PRES   REMARKS
BRANDON        PTSUNNY   66  55  68 N8        29.63R
DAUPHIN        CLOUDY    55  54  94 N7        29.65R
ISLAND LAKE    CLOUDY    52  50  93 N9        29.55R
PILOT MOUND    NOT AVBL
THE PAS        NOT AVBL
THOMPSON       CLOUDY    48  39  71 NW9       29.61R
WINNIPEG       CLOUDY    63  59  88 NW16      29.55R
LYNN LAKE      SUNNY     52  37  58 N9        29.60S
CHURCHILL      CLOUDY    41  36  81 N23G33    29.52R
GILLAM         PTSUNNY   46  39  76 NW15      29.56R
$$
                ***SASKATCHEWAN***

CITY           SKY/WX    TMP DP  RH WIND       PRES   REMARKS
ESTEVAN        MOSUNNY   70  55  60 NW14G23   29.72R
KINDERSLEY     PTSUNNY   72  48  43 NW12G17   29.74S
LLOYDMINSTER   PTSUNNY   63  50  63 W15G23    29.69R
PRINCE ALBERT  PTSUNNY   64  54  68 SE7       29.62F
REGINA         MOSUNNY   68  52  56 NW12      29.72S


USA.gov is the U.S. government's official web portal to all federal, state and local government web resources and services.